Simultaneous Nadir Overpasses (SNOs) Predictions

Prediction of SNOs between GOES-16 and METOP-A Satellite Orbit:

Table of predicted SNOs for the next 14.0 days since TLE Epoch: 10/9/2021
Index Date Time (GOES-16) GOES-16 Lat,Lon METOP-A Lat,Lon Distance(km) Time Diff (sec)
1 10/10/2021 01:12:34 -0.07, -75.20 -0.89, -78.87 418.06 80
2 10/11/2021 00:49:14 -0.07, -75.20 0.21, -73.89 149.22 80
3 10/12/2021 13:10:44 0.08, -75.21 0.82, -78.49 373.05 80
4 10/13/2021 12:47:24 0.08, -75.22 -0.29, -73.51 194.47 80
5 10/15/2021 01:09:03 -0.09, -75.22 -0.71, -78.15 333.41 80
6 10/16/2021 00:45:43 -0.08, -75.22 0.40, -73.17 234.65 80
7 10/17/2021 13:07:13 0.09, -75.25 0.63, -77.77 286.15 80
8 10/18/2021 12:43:52 0.08, -75.27 -0.47, -72.79 282.50 80
9 10/20/2021 01:05:31 -0.09, -75.28 -0.57, -77.42 243.63 80
10 10/21/2021 00:42:10 -0.09, -75.30 0.54, -72.44 325.43 80
11 10/22/2021 13:03:40 0.10, -75.34 0.49, -77.04 194.13 80
